Weather in Kosmach

Ukraine / Ivano-Frankovsk District     48°44′51″N   24°22′18″E
temp.,
°C
wind,
m/s
gust,
m/s
humid.,
%
clouds,
%
prec.,
mm/h
press.,
hPa
HPBL,
m
26 january, tue
tue2623:00−4w4128199 0.0 1001666
02:00−3wsw5137764 0.0 1003753
05:00−4wsw398157 0.0 1005337
08:00−5wsw398149 0.0 1007516
11:00−1w376957 0.0 1009894
14:000wnw366645 0.0 10091100
17:00−4wnw258336 0.0 1011202
20:00−5wsw238259 0.0 101290
27 january, wed
wed2723:00−6wsw257913 0.0 1013146
02:00−6wsw237839 0.0 101485
05:00−6wsw2280100 0.0 101398
08:00−6wsw2480100 0.0 1013144
11:00−4nw3681100 0.1 1013682
14:00−3nnw3681100 0.2 1011778
17:00−4nnw3792100 0.3 1010649
20:00−4nw3895100 0.9 1011638
28 january, thu
thu2823:00−5nnw3896100 1.0 1010603
02:00−5nw2796100 2.0 1010500
05:00−6nw3895100 0.8 1009503
08:00−7wnw3895100 1.4 1009440
11:00−4nw4786100 0.3 1008773
14:00−2wnw367498 0.3 1007641
17:00−5wsw22871 0.0 100623
20:00−6sw347819 0.0 100699
29 january, fri
fri2923:00−5sw3581100 0.0 1005165
02:00−4sse0585100 0.0 1002232
05:00−5e0291100 0.1 100191
08:00−5nw0196100 0.7 100063
11:00−1sw167666 0.1 1000539
14:00+1wnw285962 0.1 10001178
17:00−2s017899 0.0 99922
20:00−3ssw1293100 0.3 100076
30 january, sat
sat3023:00−4nnw0192100 0.1 100021
02:00−5w1194100 0.1 100121
05:00−7wsw118794 0.0 100221
08:00−7sw117897 0.0 100221
11:00−3nnw126999 0.0 1003358
14:00−3nnw2486100 0.3 1003520
17:00−5nw368876 0.2 1004277
20:00−9wsw228844 0.3 100739